When you browse on this site, cookies collect data to enhance your experience and personalize the content and advertising you see.
Visit our Privacy Policy to learn more. By continuing to use the site, you agree to this use of cookies and data.
  • In Austria
  • List of Countries
  • For 7 days
  • Water Temperature
  • Satellite Maps
  • Weather Map
  • News
  • Weather Widgets
  • user-avatar
    Login

    Hourly Weather Cyndaty

    Today, 21 February, Thursday

    Time Temperature Precipitation Wind Pressure Humidity
    00:00 0°C° 0 mm 4 mps 754 mmHg 89%
    01:00 +1°C° 0 mm 3 mps 753 mmHg 94%
    02:00 +1°C° 0 mm 3 mps 753 mmHg 94%
    03:00 +1°C° 0 mm 3 mps 753 mmHg 95%
    04:00 +1°C° 0 mm 3 mps 753 mmHg 95%
    05:00 +1°C° 0.1 mm 3 mps 753 mmHg 96%
    06:00 +1°C° 0.1 mm 3 mps 753 mmHg 96%
    07:00 +1°C° 0.1 mm 3 mps 753 mmHg 97%
    08:00 +2°C° 0.3 mm 3 mps 753 mmHg 96%
    09:00 +1°C° 0.3 mm 4 mps 753 mmHg 95%
    10:00 +3°C° 0.3 mm 4 mps 753 mmHg 95%
    11:00 +3°C° 1 mm 4 mps 753 mmHg 94%
    12:00 +3°C° 1 mm 4 mps 753 mmHg 93%
    13:00 +3°C° 1 mm 4 mps 753 mmHg 92%
    14:00 +3°C° 0.7 mm 4 mps 752 mmHg 93%
    15:00 +3°C° 0.7 mm 4 mps 752 mmHg 93%
    16:00 +3°C° 0.7 mm 4 mps 752 mmHg 93%
    17:00 +3°C° 0.8 mm 4 mps 752 mmHg 94%
    18:00 +3°C° 0.8 mm 3 mps 751 mmHg 95%
    19:00 +3°C° 0.8 mm 3 mps 751 mmHg 96%
    20:00 +3°C° 0.9 mm 3 mps 751 mmHg 96%
    21:00 +1°C° 0.9 mm 4 mps 752 mmHg 96%
    22:00 +1°C° 0.9 mm 4 mps 752 mmHg 95%
    23:00 0°C° 0.4 mm 5 mps 752 mmHg 92%

    Tomorrow, 22 February, Friday

    Time Temperature Precipitation Wind Pressure Humidity
    00:00 -3°C° 0.4 mm 6 mps 753 mmHg 88%
    01:00 -4°C° 0.4 mm 7 mps 754 mmHg 84%
    02:00 -6°C° 0 mm 7 mps 755 mmHg 78%
    03:00 -6°C° 0 mm 7 mps 756 mmHg 72%
    04:00 -5°C° 0 mm 6 mps 757 mmHg 67%
    05:00 -6°C° 0 mm 6 mps 759 mmHg 66%
    06:00 -6°C° 0 mm 6 mps 760 mmHg 64%
    07:00 -8°C° 0 mm 6 mps 761 mmHg 63%
    08:00 -6°C° 0 mm 6 mps 762 mmHg 58%
    09:00 -6°C° 0 mm 6 mps 763 mmHg 52%
    10:00 -6°C° 0 mm 6 mps 764 mmHg 46%
    11:00 -5°C° 0 mm 5 mps 765 mmHg 44%
    12:00 -5°C° 0 mm 5 mps 765 mmHg 43%
    13:00 -3°C° 0 mm 4 mps 766 mmHg 41%
    14:00 -3°C° 0 mm 4 mps 766 mmHg 42%
    15:00 -3°C° 0 mm 4 mps 767 mmHg 42%
    16:00 -4°C° 0 mm 4 mps 767 mmHg 42%
    17:00 -4°C° 0 mm 4 mps 767 mmHg 45%
    18:00 -5°C° 0 mm 4 mps 768 mmHg 48%
    19:00 -5°C° 0 mm 4 mps 768 mmHg 50%
    20:00 -5°C° 0 mm 4 mps 769 mmHg 49%
    21:00 -5°C° 0 mm 3 mps 769 mmHg 48%
    22:00 -5°C° 0 mm 3 mps 769 mmHg 47%
    23:00 -5°C° 0 mm 3 mps 770 mmHg 48%

    Day after tomorrow, 23 February, Saturday

    Time Temperature Precipitation Wind Pressure Humidity
    00:00 -6°C° 0 mm 3 mps 770 mmHg 49%
    01:00 -5°C° 0 mm 2 mps 770 mmHg 51%
    02:00 -5°C° 0 mm 2 mps 770 mmHg 52%
    03:00 -5°C° 0 mm 2 mps 770 mmHg 54%
    04:00 -3°C° 0 mm 1 mps 770 mmHg 56%
    05:00 -3°C° 0 mm 1 mps 770 mmHg 56%
    06:00 -3°C° 0 mm 1 mps 770 mmHg 56%
    07:00 -3°C° 0 mm 1 mps 770 mmHg 56%
    08:00 -3°C° 0 mm 1 mps 770 mmHg 50%
    09:00 -2°C° 0 mm 1 mps 771 mmHg 43%
    10:00 -1°C° 0 mm 1 mps 771 mmHg 37%
    11:00 0°C° 0 mm 1 mps 771 mmHg 34%
    12:00 0°C° 0 mm 1 mps 770 mmHg 31%
    13:00 +1°C° 0 mm 1 mps 770 mmHg 28%
    14:00 +1°C° 0 mm 1 mps 770 mmHg 30%
    15:00 +1°C° 0 mm 1 mps 769 mmHg 31%
    16:00 -1°C° 0 mm 2 mps 769 mmHg 32%
    17:00 -2°C° 0 mm 2 mps 769 mmHg 35%
    18:00 0°C° 0 mm 1 mps 769 mmHg 37%
    19:00 0°C° 0 mm 1 mps 768 mmHg 40%
    20:00 -2°C° 0 mm 2 mps 768 mmHg 40%
    21:00 -2°C° 0 mm 2 mps 768 mmHg 41%
    22:00 -2°C° 0 mm 2 mps 768 mmHg 41%
    23:00 -2°C° 0 mm 2 mps 768 mmHg 43%

    24 February, Sunday

    Time Temperature Precipitation Wind Pressure Humidity
    00:00 -4°C° 0 mm 3 mps 767 mmHg 45%
    01:00 -4°C° 0 mm 3 mps 767 mmHg 47%
    02:00 -4°C° 0 mm 3 mps 767 mmHg 47%
    03:00 -4°C° 0 mm 3 mps 766 mmHg 46%
    04:00 -4°C° 0 mm 4 mps 766 mmHg 46%
    05:00 -4°C° 0 mm 3 mps 765 mmHg 47%
    06:00 -4°C° 0 mm 3 mps 765 mmHg 48%
    07:00 -4°C° 0 mm 3 mps 765 mmHg 49%
    08:00 -2°C° 0 mm 3 mps 765 mmHg 47%
    09:00 -1°C° 0 mm 3 mps 765 mmHg 46%
    10:00 0°C° 0 mm 3 mps 765 mmHg 45%
    11:00 +1°C° 0 mm 3 mps 765 mmHg 48%
    12:00 +1°C° 0 mm 3 mps 764 mmHg 51%
    13:00 +1°C° 0 mm 3 mps 764 mmHg 54%
    14:00 +2°C° 0 mm 2 mps 764 mmHg 60%
    15:00 +2°C° 0 mm 2 mps 764 mmHg 65%
    16:00 +2°C° 0 mm 2 mps 764 mmHg 70%
    17:00 +2°C° 0 mm 2 mps 764 mmHg 76%
    18:00 +1°C° 0 mm 2 mps 764 mmHg 81%
    19:00 +2°C° 0 mm 1 mps 763 mmHg 87%
    20:00 +2°C° 0 mm 1 mps 763 mmHg 89%
    21:00 +2°C° 0 mm 1 mps 764 mmHg 90%
    22:00 +2°C° 0 mm 1 mps 764 mmHg 92%
    23:00 +1°C° 0 mm 1 mps 763 mmHg 93%

    25 February, Monday

    Time Temperature Precipitation Wind Pressure Humidity
    00:00 -1°C° 0 mm 2 mps 763 mmHg 93%
    01:00 -1°C° 0 mm 2 mps 763 mmHg 94%
    02:00 -1°C° 0 mm 2 mps 763 mmHg 94%
    03:00 -1°C° 0 mm 2 mps 763 mmHg 94%
    04:00 -1°C° 0 mm 2 mps 763 mmHg 94%
    05:00 -1°C° 0 mm 2 mps 764 mmHg 94%
    06:00 -1°C° 0 mm 2 mps 764 mmHg 95%
    07:00 -1°C° 0 mm 2 mps 764 mmHg 96%
    08:00 0°C° 0 mm 3 mps 765 mmHg 93%
    09:00 +1°C° 0 mm 3 mps 765 mmHg 90%
    10:00 +2°C° 0 mm 3 mps 766 mmHg 87%
    11:00 +3°C° 0 mm 3 mps 766 mmHg 81%
    12:00 +5°C° 0 mm 2 mps 765 mmHg 75%
    13:00 +6°C° 0 mm 2 mps 765 mmHg 69%
    14:00 +5°C° 0 mm 2 mps 765 mmHg 72%
    15:00 +5°C° 0 mm 2 mps 765 mmHg 75%
    16:00 +4°C° 0 mm 2 mps 765 mmHg 78%
    17:00 +3°C° 0 mm 2 mps 765 mmHg 81%
    18:00 +2°C° 0 mm 2 mps 765 mmHg 83%
    19:00 +1°C° 0 mm 2 mps 765 mmHg 86%
    20:00 +1°C° 0 mm 2 mps 765 mmHg 85%
    21:00 +1°C° 0 mm 1 mps 765 mmHg 85%
    22:00 +1°C° 0 mm 1 mps 764 mmHg 84%
    23:00 +1°C° 0 mm 1 mps 764 mmHg 84%

    26 February, Tuesday

    Time Temperature Precipitation Wind Pressure Humidity
    00:00 -1°C° 0 mm 2 mps 764 mmHg 84%
    01:00 -1°C° 0 mm 2 mps 763 mmHg 84%
    02:00 +1°C° 0 mm 2 mps 763 mmHg 85%
    03:00 0°C° 0 mm 3 mps 762 mmHg 87%
    04:00 0°C° 0 mm 3 mps 761 mmHg 89%
    05:00 -1°C° 0 mm 4 mps 760 mmHg 90%
    06:00 -1°C° 0 mm 4 mps 760 mmHg 91%
    07:00 -1°C° 0 mm 4 mps 759 mmHg 92%
    08:00 0°C° 0 mm 5 mps 759 mmHg 87%
    09:00 +2°C° 0 mm 5 mps 759 mmHg 83%
    10:00 +3°C° 0 mm 5 mps 758 mmHg 78%
    11:00 +4°C° 0 mm 6 mps 758 mmHg 75%
    12:00 +5°C° 0 mm 6 mps 757 mmHg 71%
    13:00 +5°C° 0 mm 6 mps 757 mmHg 67%
    14:00 +6°C° 0 mm 5 mps 757 mmHg 70%
    15:00 +6°C° 0 mm 5 mps 756 mmHg 73%
    16:00 +6°C° 0 mm 5 mps 756 mmHg 76%
    17:00 +3°C° 0 mm 5 mps 757 mmHg 80%
    18:00 +3°C° 0 mm 4 mps 757 mmHg 84%
    19:00 +1°C° 0 mm 4 mps 757 mmHg 88%
    20:00 0°C° 0 mm 4 mps 757 mmHg 89%
    21:00 0°C° 0 mm 5 mps 757 mmHg 90%
    22:00 -1°C° 0 mm 5 mps 757 mmHg 91%
    23:00 -1°C° 0 mm 4 mps 757 mmHg 91%
    Show more